Tracking 29892 objects as of 21-Nov-2024
HD Live streaming from Space Station
objects crossing your sky now

FLOCK 4Y 24

Track FLOCK 4Y 24 now!
10-day predictions
FLOCK 4Y 24 is classified as:


NORAD ID: 55020
Int'l Code: 2023-001M
Perigee: 450.4 km
Apogee: 459.7 km
Inclination: 97.4 °
Period: 93.5 minutes
Semi major axis: 6826 km
RCS: Unknown
Launch date: January 3, 2023
Source: United States (US)
Launch site: AIR FORCE EASTERN TEST RANGE (AFETR)
Your satellite tracking list
Your tracking list is empty




NASA's NSSDC Master Catalog

Two Line Element Set (TLE):
1 55020U 23001M   24324.98140905  .00042436  00000-0  10820-2 0  9991
2 55020  97.4024  27.2081 0006812 341.0004  19.0987 15.39384938104641
Source of the keplerian elements: AFSPC